This is the latest recevied weather packets stored in our database for station/object XE2MEM-21. If no packets are shown the sender has not sent any weather packets the latest 10 day(s).
| Time | Temp. | Humidity | Pressure | Rain* | Wind** | Luminosity | Snow |
|---|---|---|---|---|---|---|---|
| 1778182952 | 28.33° C | 100% | 1008.8 hPa | - | - | - | - |
| 1778182052 | 28.33° C | 100% | 1008.9 hPa | - | - | - | - |
| 1778181152 | 27.78° C | 100% | 1009.2 hPa | - | - | - | - |
| 1778180252 | 27.78° C | 100% | 1009.4 hPa | - | - | - | - |
| 1778179352 | 26.67° C | 100% | 1009.7 hPa | - | - | - | - |
| 1778178452 | 26.11° C | 100% | 1009.9 hPa | - | - | - | - |
| 1778177552 | 25.56° C | 100% | 1010.2 hPa | - | - | - | - |
| 1778176652 | 25.56° C | 100% | 1010.4 hPa | - | - | - | - |
| 1778175752 | 26.11° C | 100% | 1010.2 hPa | - | - | - | - |
| 1778174852 | 26.67° C | 100% | 1010.3 hPa | - | - | - | - |
| 1778173952 | 27.78° C | 100% | 1010.4 hPa | - | - | - | - |
| 1778173052 | 25° C | 100% | 1010.5 hPa | - | - | - | - |
| 1778172152 | 25.56° C | 100% | 1010.4 hPa | - | - | - | - |
| 1778171252 | 25.56° C | 100% | 1010.5 hPa | - | - | - | - |
| 1778170352 | 25° C | 100% | 1010.4 hPa | - | - | - | - |
| 1778169451 | 25° C | 100% | 1010.3 hPa | - | - | - | - |
| 1778168551 | 24.44° C | 100% | 1010.2 hPa | - | - | - | - |
| 1778167651 | 25° C | 100% | 1010.1 hPa | - | - | - | - |
| 1778166751 | 25.56° C | 100% | 1010 hPa | - | - | - | - |
| 1778165851 | 25.56° C | 100% | 1009.8 hPa | - | - | - | - |
| 1778164951 | 25.56° C | 100% | 1009.7 hPa | - | - | - | - |
| 1778164051 | 26.11° C | 100% | 1009.3 hPa | - | - | - | - |
| 1778163151 | 26.67° C | 100% | 1009.2 hPa | - | - | - | - |
| 1778162251 | 27.78° C | 100% | 1009 hPa | - | - | - | - |
| 1778161351 | 28.33° C | 100% | 1008.8 hPa | - | - | - | - |
* Rain since midnight (hover to see other rain measurements)
** Current wind speed in m/s (hover to see current wind gust speed)